DELTA 1 DEB

Satellite information

Favourite Embed

Satellite Type and Status

DEBRISIN ORBIT

Key statistics

Satellite DELTA 1 DEB at a glance.

Uptime

17451

Days in orbit

Revolutions

≈ 13.9

Per day

Orbit

SSO

Sun Synchronous Orbit

Inclination

99.4

Latest

Satellite identification and parameters

Extended collection of information and parameters for DELTA 1 DEB.

Object identification

Identified? True

Debris? True

Object name: DELTA 1 DEB

International designator: 1978-026GE

Object number (NORAD): 14464

Object ID (CCSDS): 14464

Country: UNITED STATES OF AMERICA (US)

Current information (Y/N): Y

RCS size: SMALL

Orbital parameters

Period: 103.27 minutes

Inclination: 99.4377 deg

SMA: 7291.39 km

Apoapsis: 957.126 km

Periapsis: 869.384 km

RAAN: 205.0931 deg

Eccentricy: 0.00601685

Argument of periapsis: 313.2491 deg

Mean anomaly: 108.4134 deg

Mean motion: 13.9439964 rev/day

Mean motion (dot): 0.00000339 rev/day2

B* drag term: 0.00028594432 1/REarth

Two-line elements (TLE)

Creation date: Dec. 14, 2025, 3:07 a.m.

Reference frame: TEME

Reference center: EARTH

Epoch: Dec. 13, 2025, 2:38 p.m. UTC

TLE line 0: 0 DELTA 1 DEB

TLE line 1: 1 14464U 78026GE 25347.61007741 .00000339 00000-0 28594-3 0 9995

TLE line 2: 2 14464 99.4377 205.0931 0060169 313.2491 108.4134 13.94399640194873

Live tracking on map

Real-time ground track for satellite DELTA 1 DEB.

In-orbit conjunctions

A list of the most updated potential collisions computed for object DELTA 1 DEB.

Target Orbit TCA Probability of collision Miss distance Type
CZ-6A DEB SSO 2025-03-30 12:49:13 0.0001021622 114.0 (m) DEBRIS
COSMOS 1375 DEB LEO 2025-03-03 17:04:00 0.000180358 268.0 (m) DEBRIS
FENGYUN 1C DEB SSO 2024-09-08 04:18:12 0.0003249677 64.0 (m) DEBRIS

Associated space launch

Earth observation satellite

DELTA 1 DEB was lifted into orbit during the mission ‘Delta 2910 | Landsat 3’, on board a Delta 2910 space rocket.

The launch took place on March 5, 1978, 5:54 p.m. from Space Launch Complex 2W.

For more information about the launch, click the button.

Launch to space Delta 2910 | Landsat 3
Delta 2910 | Landsat 3

Agency: N/A

Status: Launch Successful

Launch date: March 5, 1978, 5:54 p.m. UTC

Rocket: Delta 2910

Launch pad: Space Launch Complex 2W

Location: Vandenberg SFB, CA, USA

...

Latest news about this satellite

There are no fresh news available about this satellite. Check back as we update our databases every day.


Newsletter sign-up

Weekly statistics, charts and insights to help you stay on top of the space industry.